Location: Newark
(23.1300°N, 73.6109°E)
Time: 21:42:59
(UTC+00:00)

Hubble Space Telescope - Visible Passes

Search period start: 24 July 2021 00:00
Search period end: 03 August 2021 00:00
Orbit: 535 x 539 km, 28.5° (Epoch: 24 July)

Date Brightness Start Highest point End Pass type
(mag) Time Alt. Az. Time Alt. Az. Time Alt. Az.
24 Jul 0.8 14:14:47 10° WSW 14:18:54 90° SSE 14:23:01 10° ENE visible
24 Jul 1.9 15:56:20 10° WNW 16:00:01 41° NNW 16:00:01 41° NNW visible
25 Jul 1.8 15:45:28 10° WNW 15:49:20 39° N 15:49:47 37° NNE visible
26 Jul 1.9 15:34:36 10° WNW 15:38:27 38° N 15:39:27 32° NNE visible
27 Jul 1.9 15:23:43 10° WNW 15:27:34 38° N 15:29:01 28° NE visible
28 Jul 1.9 15:12:48 10° WNW 15:16:40 38° N 15:18:33 24° NE visible
29 Jul 1.7 15:01:52 10° WNW 15:05:46 41° N 15:08:02 21° ENE visible
29 Jul 3.9 16:43:00 10° WNW 16:43:20 12° WNW 16:43:20 12° WNW visible
30 Jul 1.6 14:50:55 10° WNW 14:54:52 44° N 14:57:30 19° ENE visible
30 Jul 3.6 16:32:02 10° WNW 16:32:48 15° WNW 16:32:48 15° WNW visible
31 Jul 1.4 14:39:57 10° WNW 14:43:56 49° N 14:46:58 16° E visible
31 Jul 3.3 16:21:06 10° WNW 16:22:16 18° W 16:22:16 18° W visible
01 Aug 1.2 14:28:58 10° WNW 14:33:01 56° NNE 14:36:27 14° E visible
01 Aug 3.0 16:10:13 10° W 16:11:45 21° W 16:11:45 21° W visible
02 Aug 1.0 14:17:58 10° WNW 14:22:05 67° NNE 14:25:57 11° E visible
02 Aug 2.8 15:59:23 10° W 16:01:16 23° WSW 16:01:16 23° WSW visible
